Time,TemperatureF,DewpointF,PressureIn,WindDirection,WindDirectionDegrees,WindSpeedMPH,WindSpeedGustMPH,Humidity,HourlyPrecipIn,Conditions,Clouds,dailyrainin,SoftwareType,DateUTC
2013-02-06 00:01:00,45.0,23.0,29.73,NNE,23,1.0,2.0,42,0.00,,,0.00,,2013-02-06 07:01:00,
2013-02-06 00:11:00,45.0,23.0,29.73,NNE,23,1.0,2.0,42,0.00,,,0.00,,2013-02-06 07:11:00,
2013-02-06 00:21:00,45.0,24.0,29.69,NE,45,0.0,3.0,43,0.00,,,0.00,,2013-02-06 07:21:00,
2013-02-06 00:32:00,44.0,23.0,29.73,North,0,2.0,2.0,44,0.00,,,0.00,,2013-02-06 07:32:00,
2013-02-06 00:41:00,44.0,23.0,29.73,North,0,2.0,2.0,44,0.00,,,0.00,,2013-02-06 07:41:00,
2013-02-06 00:52:00,44.0,24.0,29.69,ENE,68,1.0,2.0,45,0.00,,,0.00,,2013-02-06 07:52:00,
2013-02-06 01:01:00,44.0,25.0,29.69,ENE,68,1.0,3.0,46,0.00,,,0.00,,2013-02-06 08:01:00,
2013-02-06 01:11:00,44.0,25.0,29.69,ENE,68,1.0,3.0,46,0.00,,,0.00,,2013-02-06 08:11:00,
2013-02-06 01:21:00,43.0,24.0,29.73,ESE,113,2.0,3.0,46,0.00,,,0.00,,2013-02-06 08:21:00,
2013-02-06 01:31:00,43.0,24.0,29.69,NE,45,1.0,3.0,47,0.00,,,0.00,,2013-02-06 08:31:00,
2013-02-06 01:41:00,43.0,24.0,29.69,NE,45,1.0,3.0,47,0.00,,,0.00,,2013-02-06 08:41:00,
2013-02-06 01:53:00,43.0,25.0,29.69,WNW,293,2.0,2.0,48,0.00,,,0.00,,2013-02-06 08:53:00,
2013-02-06 02:01:00,43.0,25.0,29.69,West,270,0.0,1.0,48,0.00,,,0.00,,2013-02-06 09:01:00,
2013-02-06 02:11:00,43.0,25.0,29.69,West,270,0.0,1.0,48,0.00,,,0.00,,2013-02-06 09:11:00,
2013-02-06 02:21:00,43.0,25.0,29.69,NNW,338,2.0,2.0,49,0.00,,,0.00,,2013-02-06 09:21:00,
2013-02-06 02:31:00,42.0,24.0,29.73,NE,45,2.0,3.0,49,0.00,,,0.00,,2013-02-06 09:31:00,
2013-02-06 02:41:00,42.0,24.0,29.73,NE,45,2.0,3.0,49,0.00,,,0.00,,2013-02-06 09:41:00,
2013-02-06 02:52:00,42.0,24.0,29.69,ENE,68,2.0,5.0,49,0.00,,,0.00,,2013-02-06 09:52:00,
2013-02-06 03:01:00,42.0,24.0,29.69,NW,315,2.0,3.0,49,0.00,,,0.00,,2013-02-06 10:01:00,
2013-02-06 03:11:00,42.0,24.0,29.69,NW,315,2.0,3.0,49,0.00,,,0.00,,2013-02-06 10:11:00,
2013-02-06 03:21:00,42.0,25.0,29.69,ESE,113,0.0,2.0,50,0.00,,,0.00,,2013-02-06 10:21:00,
2013-02-06 03:31:00,42.0,25.0,29.69,ESE,113,2.0,2.0,50,0.00,,,0.00,,2013-02-06 10:31:00,
2013-02-06 03:41:00,42.0,25.0,29.69,ESE,113,2.0,2.0,50,0.00,,,0.00,,2013-02-06 10:41:00,
2013-02-06 03:52:00,42.0,25.0,29.69,SW,225,0.0,1.0,50,0.00,,,0.00,,2013-02-06 10:52:00,
2013-02-06 04:01:00,42.0,25.0,29.69,East,90,2.0,3.0,51,0.00,,,0.00,,2013-02-06 11:01:00,
2013-02-06 04:11:00,42.0,25.0,29.69,East,90,2.0,3.0,51,0.00,,,0.00,,2013-02-06 11:11:00,
2013-02-06 04:21:00,41.0,24.0,29.66,ESE,113,4.0,5.0,51,0.00,,,0.00,,2013-02-06 11:21:00,
2013-02-06 04:31:00,41.0,25.0,29.66,WNW,293,0.0,2.0,52,0.00,,,0.00,,2013-02-06 11:31:00,
2013-02-06 04:41:00,41.0,25.0,29.66,WNW,293,0.0,2.0,52,0.00,,,0.00,,2013-02-06 11:41:00,
2013-02-06 04:52:00,42.0,26.0,29.66,West,270,2.0,4.0,52,0.00,,,0.00,,2013-02-06 11:52:00,
2013-02-06 05:01:00,41.0,25.0,29.66,NNE,23,2.0,3.0,52,0.00,,,0.00,,2013-02-06 12:01:00,
2013-02-06 05:12:00,41.0,25.0,29.66,NNE,23,2.0,3.0,52,0.00,,,0.00,,2013-02-06 12:12:00,
2013-02-06 05:21:00,41.0,25.0,29.66,SE,135,2.0,2.0,53,0.00,,,0.00,,2013-02-06 12:21:00,
2013-02-06 05:32:00,41.0,25.0,29.66,ESE,113,1.0,2.0,53,0.00,,,0.00,,2013-02-06 12:32:00,
2013-02-06 05:41:00,41.0,25.0,29.66,ESE,113,1.0,2.0,53,0.00,,,0.00,,2013-02-06 12:41:00,
2013-02-06 05:52:00,41.0,25.0,29.66,WSW,248,0.0,1.0,53,0.00,,,0.00,,2013-02-06 12:52:00,
2013-02-06 06:01:00,42.0,26.0,29.66,NNW,338,2.0,3.0,53,0.00,,,0.00,,2013-02-06 13:01:00,
2013-02-06 06:11:00,42.0,26.0,29.66,NNW,338,2.0,3.0,53,0.00,,,0.00,,2013-02-06 13:11:00,
2013-02-06 06:21:00,42.0,27.0,29.66,East,90,1.0,2.0,54,0.00,,,0.00,,2013-02-06 13:21:00,
2013-02-06 06:31:00,41.0,26.0,29.66,SE,135,0.0,2.0,54,0.00,,,0.00,,2013-02-06 13:31:00,
2013-02-06 06:41:00,41.0,26.0,29.66,SE,135,0.0,2.0,54,0.00,,,0.00,,2013-02-06 13:41:00,
2013-02-06 06:52:00,41.0,26.0,29.66,WSW,248,1.0,2.0,54,0.00,,,0.00,,2013-02-06 13:52:00,
2013-02-06 07:01:00,41.0,26.0,29.66,ESE,113,1.0,2.0,55,0.00,,,0.00,,2013-02-06 14:01:00,
2013-02-06 07:11:00,41.0,26.0,29.66,ESE,113,1.0,2.0,55,0.00,,,0.00,,2013-02-06 14:11:00,
2013-02-06 07:21:00,41.0,27.0,29.66,NNE,23,2.0,4.0,56,0.00,,,0.00,,2013-02-06 14:21:00,
2013-02-06 07:31:00,41.0,27.0,29.66,ENE,68,2.0,3.0,57,0.00,,,0.00,,2013-02-06 14:31:00,
2013-02-06 07:41:00,41.0,27.0,29.66,SSW,203,1.0,2.0,57,0.00,,,0.00,,2013-02-06 14:41:00,
2013-02-06 07:52:00,41.0,27.0,29.66,SSW,203,1.0,2.0,57,0.00,,,0.00,,2013-02-06 14:52:00,
2013-02-06 08:01:00,41.0,27.0,29.66,ENE,68,2.0,3.0,57,0.00,,,0.00,,2013-02-06 15:01:00,
2013-02-06 08:11:00,42.0,28.0,29.66,North,0,0.0,1.0,57,0.00,,,0.00,,2013-02-06 15:11:00,
2013-02-06 08:21:00,42.0,28.0,29.66,North,0,0.0,1.0,57,0.00,,,0.00,,2013-02-06 15:21:00,
2013-02-06 08:31:00,42.0,28.0,29.66,ENE,68,3.0,4.0,57,0.00,,,0.00,,2013-02-06 15:31:00,
2013-02-06 08:41:00,42.0,28.0,29.66,ENE,68,3.0,4.0,57,0.00,,,0.00,,2013-02-06 15:41:00,
2013-02-06 08:52:00,43.0,28.0,29.66,NNW,338,1.0,2.0,56,0.00,,,0.00,,2013-02-06 15:52:00,
2013-02-06 09:01:00,44.0,29.0,29.66,ENE,68,1.0,2.0,56,0.00,,,0.00,,2013-02-06 16:01:00,
2013-02-06 09:11:00,44.0,29.0,29.66,ENE,68,1.0,2.0,56,0.00,,,0.00,,2013-02-06 16:11:00,
2013-02-06 09:21:00,45.0,30.0,29.66,South,180,1.0,2.0,56,0.00,,,0.00,,2013-02-06 16:21:00,
2013-02-06 09:31:00,47.0,31.0,29.66,SE,135,1.0,1.0,54,0.00,,,0.00,,2013-02-06 16:31:00,
2013-02-06 09:41:00,47.0,31.0,29.66,SE,135,1.0,1.0,54,0.00,,,0.00,,2013-02-06 16:41:00,
2013-02-06 09:52:00,49.0,32.0,29.66,East,90,0.0,2.0,51,0.00,,,0.00,,2013-02-06 16:52:00,
2013-02-06 10:01:00,50.0,32.0,29.66,ENE,68,3.0,3.0,50,0.00,,,0.00,,2013-02-06 17:01:00,
2013-02-06 10:21:00,50.0,31.0,29.66,ENE,68,1.0,2.0,48,0.00,,,0.00,,2013-02-06 17:21:00,
2013-02-06 10:32:00,51.0,32.0,29.69,ENE,68,0.0,2.0,48,0.00,,,0.00,,2013-02-06 17:32:00,
2013-02-06 10:41:00,52.0,32.0,29.69,ESE,113,1.0,1.0,47,0.00,,,0.00,,2013-02-06 17:41:00,
2013-02-06 10:52:00,52.0,32.0,29.69,ESE,113,1.0,1.0,47,0.00,,,0.00,,2013-02-06 17:52:00,
2013-02-06 11:01:00,53.0,33.0,29.73,SSW,203,0.0,2.0,46,0.00,,,0.00,,2013-02-06 18:01:00,
2013-02-06 11:11:00,57.0,35.0,29.73,ENE,68,1.0,2.0,44,0.00,,,0.00,,2013-02-06 18:11:00,
2013-02-06 11:22:00,57.0,35.0,29.73,ENE,68,1.0,2.0,44,0.00,,,0.00,,2013-02-06 18:22:00,
2013-02-06 11:32:00,59.0,33.0,29.73,NE,45,4.0,5.0,38,0.00,,,0.00,,2013-02-06 18:32:00,
2013-02-06 11:41:00,59.0,33.0,29.73,NE,45,4.0,5.0,38,0.00,,,0.00,,2013-02-06 18:41:00,
2013-02-06 11:52:00,61.0,35.0,29.73,ESE,113,3.0,5.0,37,0.00,,,0.00,,2013-02-06 18:52:00,
2013-02-06 12:01:00,63.0,34.0,29.73,East,90,3.0,6.0,34,0.00,,,0.00,,2013-02-06 19:01:00,
2013-02-06 12:21:00,63.0,34.0,29.69,North,0,3.0,3.0,34,0.00,,,0.00,,2013-02-06 19:21:00,
2013-02-06 12:31:00,64.0,34.0,29.69,East,90,3.0,4.0,33,0.00,,,0.00,,2013-02-06 19:31:00,
2013-02-06 12:41:00,64.0,34.0,29.69,East,90,3.0,4.0,33,0.00,,,0.00,,2013-02-06 19:41:00,
2013-02-06 12:52:00,64.0,33.0,29.69,SW,225,4.0,6.0,31,0.00,,,0.00,,2013-02-06 19:52:00,
2013-02-06 13:01:00,66.0,34.0,29.66,SE,135,4.0,6.0,30,0.00,,,0.00,,2013-02-06 20:01:00,
2013-02-06 13:11:00,67.0,33.0,29.66,SW,225,5.0,7.0,28,0.00,,,0.00,,2013-02-06 20:11:00,
2013-02-06 13:21:00,67.0,33.0,29.66,SW,225,5.0,7.0,28,0.00,,,0.00,,2013-02-06 20:21:00,
2013-02-06 13:31:00,67.0,32.0,29.62,South,180,4.0,10.0,27,0.00,,,0.00,,2013-02-06 20:31:00,
2013-02-06 13:41:00,67.0,32.0,29.62,South,180,4.0,10.0,27,0.00,,,0.00,,2013-02-06 20:41:00,
2013-02-06 13:52:00,66.0,31.0,29.66,NW,315,4.0,4.0,27,0.00,,,0.00,,2013-02-06 20:52:00,
2013-02-06 14:01:00,67.0,32.0,29.66,SSW,203,3.0,4.0,27,0.00,,,0.00,,2013-02-06 21:01:00,
2013-02-06 14:21:00,67.0,31.0,29.66,SSE,158,4.0,6.0,26,0.00,,,0.00,,2013-02-06 21:21:00,
2013-02-06 14:31:00,67.0,30.0,29.66,SW,225,4.0,6.0,25,0.00,,,0.00,,2013-02-06 21:31:00,
2013-02-06 14:41:00,67.0,30.0,29.66,SW,225,4.0,6.0,25,0.00,,,0.00,,2013-02-06 21:41:00,
2013-02-06 14:52:00,68.0,30.0,29.66,SW,225,4.0,7.0,24,0.00,,,0.00,,2013-02-06 21:52:00,
2013-02-06 15:01:00,68.0,30.0,29.66,South,180,7.0,11.0,24,0.00,,,0.00,,2013-02-06 22:01:00,
2013-02-06 15:21:00,68.0,30.0,29.66,WNW,293,6.0,9.0,24,0.00,,,0.00,,2013-02-06 22:21:00,
2013-02-06 15:31:00,68.0,29.0,29.66,West,270,2.0,8.0,23,0.00,,,0.00,,2013-02-06 22:31:00,
2013-02-06 15:41:00,68.0,29.0,29.66,West,270,2.0,8.0,23,0.00,,,0.00,,2013-02-06 22:41:00,
2013-02-06 15:52:00,68.0,29.0,29.66,SW,225,6.0,8.0,23,0.00,,,0.00,,2013-02-06 22:52:00,
2013-02-06 16:01:00,67.0,28.0,29.66,South,180,4.0,8.0,23,0.00,,,0.00,,2013-02-06 23:01:00,
2013-02-06 16:11:00,67.0,28.0,29.66,South,180,4.0,8.0,23,0.00,,,0.00,,2013-02-06 23:11:00,
2013-02-06 16:21:00,67.0,29.0,29.62,South,180,6.0,6.0,24,0.00,,,0.00,,2013-02-06 23:21:00,
2013-02-06 16:31:00,64.0,26.0,29.66,SW,225,6.0,7.0,24,0.00,,,0.00,,2013-02-06 23:31:00,
2013-02-06 16:41:00,64.0,26.0,29.66,SW,225,6.0,7.0,24,0.00,,,0.00,,2013-02-06 23:41:00,
2013-02-06 16:52:00,62.0,26.0,29.66,West,270,5.0,8.0,25,0.00,,,0.00,,2013-02-06 23:52:00,
2013-02-06 17:01:00,60.0,26.0,29.66,SW,225,3.0,6.0,27,0.00,,,0.00,,2013-02-07 00:01:00,
2013-02-06 17:21:00,59.0,26.0,29.66,SSW,203,4.0,6.0,28,0.00,,,0.00,,2013-02-07 00:21:00,
2013-02-06 17:31:00,59.0,28.0,29.66,South,180,3.0,4.0,31,0.00,,,0.00,,2013-02-07 00:31:00,
2013-02-06 17:41:00,59.0,28.0,29.66,South,180,3.0,4.0,31,0.00,,,0.00,,2013-02-07 00:41:00,
2013-02-06 17:52:00,58.0,29.0,29.66,SSE,158,4.0,6.0,33,0.00,,,0.00,,2013-02-07 00:52:00,
2013-02-06 18:01:00,58.0,31.0,29.66,SW,225,3.0,5.0,35,0.00,,,0.00,,2013-02-07 01:01:00,
2013-02-06 18:11:00,58.0,31.0,29.66,SW,225,3.0,5.0,35,0.00,,,0.00,,2013-02-07 01:11:00,
2013-02-06 18:21:00,57.0,30.0,29.66,South,180,3.0,5.0,36,0.00,,,0.00,,2013-02-07 01:21:00,
2013-02-06 18:31:00,56.0,30.0,29.66,SSW,203,3.0,4.0,37,0.00,,,0.00,,2013-02-07 01:31:00,
2013-02-06 18:41:00,56.0,30.0,29.66,SSW,203,3.0,4.0,37,0.00,,,0.00,,2013-02-07 01:41:00,
2013-02-06 18:52:00,55.0,30.0,29.66,South,180,3.0,6.0,38,0.00,,,0.00,,2013-02-07 01:52:00,
2013-02-06 19:01:00,55.0,31.0,29.66,South,180,4.0,7.0,40,0.00,,,0.00,,2013-02-07 02:01:00,
2013-02-06 19:11:00,55.0,31.0,29.66,South,180,4.0,7.0,40,0.00,,,0.00,,2013-02-07 02:11:00,
2013-02-06 19:21:00,54.0,31.0,29.69,ESE,113,4.0,6.0,42,0.00,,,0.00,,2013-02-07 02:21:00,
2013-02-06 19:31:00,54.0,32.0,29.73,NNE,23,2.0,4.0,43,0.00,,,0.00,,2013-02-07 02:31:00,
2013-02-06 19:41:00,54.0,32.0,29.73,NNE,23,2.0,4.0,43,0.00,,,0.00,,2013-02-07 02:41:00,
2013-02-06 19:51:00,54.0,32.0,29.73,NNE,23,2.0,4.0,43,0.00,,,0.00,,2013-02-07 02:51:00,
2013-02-06 20:01:00,52.0,33.0,29.73,ENE,68,5.0,10.0,49,0.00,,,0.00,,2013-02-07 03:01:00,
2013-02-06 20:11:00,51.0,33.0,29.73,East,90,3.0,6.0,50,0.00,,,0.00,,2013-02-07 03:11:00,
2013-02-06 20:21:00,51.0,33.0,29.73,East,90,3.0,6.0,50,0.00,,,0.00,,2013-02-07 03:21:00,
2013-02-06 20:31:00,50.0,32.0,29.73,East,90,3.0,5.0,50,0.00,,,0.00,,2013-02-07 03:31:00,
2013-02-06 20:41:00,50.0,32.0,29.73,East,90,3.0,5.0,50,0.00,,,0.00,,2013-02-07 03:41:00,
2013-02-06 20:52:00,50.0,33.0,29.69,NE,45,3.0,4.0,52,0.00,,,0.00,,2013-02-07 03:52:00,
2013-02-06 21:01:00,49.0,33.0,29.73,North,0,2.0,5.0,53,0.00,,,0.00,,2013-02-07 04:01:00,
2013-02-06 21:11:00,49.0,33.0,29.73,North,0,2.0,5.0,53,0.00,,,0.00,,2013-02-07 04:11:00,
2013-02-06 21:21:00,49.0,33.0,29.73,ENE,68,2.0,4.0,53,0.00,,,0.00,,2013-02-07 04:21:00,
2013-02-06 21:31:00,49.0,33.0,29.76,East,90,2.0,4.0,53,0.00,,,0.00,,2013-02-07 04:31:00,
2013-02-06 21:41:00,49.0,33.0,29.76,East,90,2.0,4.0,53,0.00,,,0.00,,2013-02-07 04:41:00,
2013-02-06 21:53:00,48.0,32.0,29.76,East,90,3.0,4.0,54,0.00,,,0.00,,2013-02-07 04:53:00,
2013-02-06 22:01:00,48.0,33.0,29.76,NNW,338,2.0,4.0,55,0.00,,,0.00,,2013-02-07 05:01:00,
2013-02-06 22:11:00,48.0,33.0,29.76,NNW,338,2.0,4.0,55,0.00,,,0.00,,2013-02-07 05:11:00,
2013-02-06 22:21:00,47.0,32.0,29.79,East,90,1.0,2.0,56,0.00,,,0.00,,2013-02-07 05:21:00,
2013-02-06 22:31:00,47.0,33.0,29.76,ENE,68,3.0,4.0,57,0.00,,,0.00,,2013-02-07 05:31:00,
2013-02-06 22:42:00,47.0,33.0,29.76,ENE,68,3.0,4.0,57,0.00,,,0.00,,2013-02-07 05:42:00,
2013-02-06 22:52:00,46.0,32.0,29.79,ENE,68,2.0,4.0,58,0.00,,,0.00,,2013-02-07 05:52:00,
2013-02-06 23:01:00,46.0,33.0,29.79,NNE,23,2.0,2.0,60,0.00,,,0.00,,2013-02-07 06:01:00,
2013-02-06 23:11:00,46.0,33.0,29.79,NNE,23,2.0,2.0,60,0.00,,,0.00,,2013-02-07 06:11:00,
2013-02-06 23:22:00,46.0,32.0,29.79,NNE,23,1.0,2.0,59,0.00,,,0.00,,2013-02-07 06:22:00,
2013-02-06 23:31:00,45.0,32.0,29.79,NE,45,3.0,4.0,60,0.00,,,0.00,,2013-02-07 06:31:00,
2013-02-06 23:42:00,45.0,32.0,29.79,NE,45,3.0,4.0,60,0.00,,,0.00,,2013-02-07 06:42:00,
2013-02-06 23:52:00,45.0,32.0,29.79,NE,45,2.0,4.0,60,0.00,,,0.00,,2013-02-07 06:52:00,